This is the latest recevied weather packets stored in our database for station/object WA6OOO. If no packets are shown the sender has not sent any weather packets the latest 10 day(s).
| Time | Temp. | Humidity | Pressure | Rain* | Wind** | Luminosity | Snow |
|---|---|---|---|---|---|---|---|
| 1777995609 | 14.44° C | 81% | 1017 hPa | 0 mm | - | 467 W/m² | - |
| 1777995308 | 14.44° C | 80% | 1017 hPa | 0 mm | - | 198 W/m² | - |
| 1777995003 | 13.89° C | 81% | 1016.9 hPa | 0 mm | - | 210 W/m² | - |
| 1777994701 | 13.89° C | 83% | 1017.1 hPa | 0 mm | - | 174 W/m² | - |
| 1777994395 | 13.33° C | 84% | 1016.9 hPa | 0 mm | - | 178 W/m² | - |
| 1777994091 | 13.89° C | 83% | 1016.9 hPa | 0 mm | - | 118 W/m² | - |
| 1777993789 | 13.89° C | 83% | 1017.1 hPa | 0 mm | - | 96 W/m² | - |
| 1777993485 | 13.89° C | 82% | 1017.1 hPa | 0 mm | - | 108 W/m² | - |
| 1777993185 | 13.89° C | 83% | 1017 hPa | 0 mm | - | 129 W/m² | - |
| 1777992883 | 13.33° C | 83% | 1017.2 hPa | 0 mm | - | 190 W/m² | - |
| 1777992581 | 13.33° C | 83% | 1016.9 hPa | 0 mm | - | 126 W/m² | - |
| 1777992279 | 13.33° C | 83% | 1017 hPa | 0 mm | - | 160 W/m² | - |
| 1777991976 | 13.33° C | 83% | 1016.9 hPa | 0 mm | - | 127 W/m² | - |
| 1777991673 | 12.78° C | 86% | 1016.9 hPa | 0 mm | - | 205 W/m² | - |
| 1777991370 | 12.22° C | 87% | 1016.9 hPa | 0 mm | - | 86 W/m² | - |
| 1777991068 | 12.22° C | 87% | 1017 hPa | 0 mm | - | 79 W/m² | - |
| 1777990765 | 12.22° C | 87% | 1016.9 hPa | 0 mm | - | 69 W/m² | - |
| 1777990462 | 12.22° C | 86% | 1016.8 hPa | 0 mm | - | 57 W/m² | - |
| 1777989855 | 12.22° C | 87% | 1016.6 hPa | 0 mm | - | 44 W/m² | - |
| 1777989552 | 12.22° C | 87% | 1016.6 hPa | 0 mm | - | 46 W/m² | - |
| 1777989249 | 12.22° C | 88% | 1016.6 hPa | 0 mm | - | 47 W/m² | - |
| 1777988945 | 12.22° C | 88% | 1016.7 hPa | 0 mm | - | 35 W/m² | - |
| 1777988641 | 11.67° C | 88% | 1016.7 hPa | 0 mm | - | 31 W/m² | - |
| 1777988339 | 12.22° C | 88% | 1016.4 hPa | 0 mm | - | 28 W/m² | - |
| 1777988036 | 12.22° C | 88% | 1016.4 hPa | 0 mm | - | 21 W/m² | - |
* Rain latest hour (hover to see other rain measurements)
** Current wind speed in m/s (hover to see current wind gust speed)